This is the latest recevied weather packets stored in our database for station/object KQ4NAL. If no packets are shown the sender has not sent any weather packets the latest 10 day(s).
| Time | Temp. | Humidity | Pressure | Rain* | Wind** | Luminosity | Snow |
|---|---|---|---|---|---|---|---|
| 1777472595 | 16.11° C | 98% | 1010.9 hPa | 0 mm | - | 154 W/m² | - |
| 1777472291 | 16.11° C | 98% | 1010.9 hPa | 0 mm | - | 124 W/m² | - |
| 1777471988 | 16.67° C | 98% | 1010.9 hPa | 0 mm | - | 94 W/m² | - |
| 1777471684 | 16.11° C | 98% | 1010.9 hPa | 0 mm | - | 149 W/m² | - |
| 1777471381 | 16.11° C | 99% | 1010.9 hPa | 0 mm | - | 173 W/m² | - |
| 1777471077 | 15.56° C | 98% | 1011 hPa | 0 mm | - | 153 W/m² | - |
| 1777470774 | 15.56° C | 98% | 1010.8 hPa | 0 mm | - | 110 W/m² | - |
| 1777470465 | 16.11° C | 98% | 1010.9 hPa | 0 mm | - | 94 W/m² | - |
| 1777470162 | 15.56° C | 98% | 1011 hPa | 0 mm | - | 136 W/m² | - |
| 1777469858 | 15.56° C | 98% | 1010.9 hPa | 0 mm | - | 109 W/m² | - |
| 1777469554 | 15.56° C | 98% | 1010.9 hPa | 0 mm | - | 104 W/m² | - |
| 1777469254 | 15.56° C | 98% | 1011 hPa | 0 mm | - | 92 W/m² | - |
| 1777468948 | 15.56° C | 98% | 1011 hPa | 0 mm | - | 96 W/m² | - |
| 1777468645 | 15.56° C | 98% | 1011.1 hPa | 0 mm | - | 53 W/m² | - |
| 1777468342 | 15.56° C | 98% | 1011.2 hPa | 0 mm | - | 65 W/m² | - |
| 1777468038 | 15.56° C | 98% | 1010.9 hPa | 0 mm | - | 40 W/m² | - |
| 1777467734 | 15.56° C | 98% | 1011.2 hPa | 0 mm | - | 34 W/m² | - |
| 1777467429 | 15.56° C | 98% | 1011.1 hPa | 0 mm | - | 40 W/m² | - |
| 1777467125 | 15.56° C | 97% | 1011.2 hPa | 0 mm | - | 42 W/m² | - |
| 1777466823 | 15.56° C | 98% | 1011.4 hPa | 0 mm | - | 25 W/m² | - |
| 1777466521 | 15.56° C | 98% | 1011.3 hPa | 0 mm | - | 20 W/m² | - |
| 1777466216 | 15.56° C | 98% | 1011.3 hPa | 0 mm | - | 23 W/m² | - |
| 1777465912 | 15.56° C | 98% | 1011.4 hPa | 0 mm | - | 16 W/m² | - |
| 1777465609 | 15.56° C | 98% | 1011.4 hPa | 0 mm | - | 21 W/m² | - |
| 1777465304 | 15.56° C | 98% | 1011.3 hPa | 0 mm | - | 29 W/m² | - |
* Rain latest hour (hover to see other rain measurements)
** Current wind speed in m/s (hover to see current wind gust speed)